This demonstration page uses our WeatherBlox Daily Observations layout. Learn more.

Left ArrowRight Arrow

Hourly Observations for May 16, 2022

Temp ( °F °C ) Dew Point ( °F °C ) Humidity (%) Winds ( mph kmh ) Pressure ( in mb ) Visibility ( mi km ) Precip ( " mm )
12:15 am 00:15 Mostly Clear with Light Rain 58 14.5 55 12.7 89 89 NW 12 19 29.91 1013 10 16 0.01 0.25
12:35 am 00:35 Mostly Clear with Rain 57 13.8 55 12.5 92 92 NNW 9 15 29.91 1013 7 11 0.03 0.76
12:55 am 00:55 Mostly Clear with Rain 56 13.6 55 12.6 94 94 Calm 29.91 1013 10 16 0.03 0.76
1:15 am 01:15 undefined 56 13.5 55 12.5 94 94 Calm 29.88 1012 10 16 0.00 0.00
1:35 am 01:35 undefined 56 13.5 55 12.5 94 94 Calm 29.85 1011 10 16 0.00 0.00
1:55 am 01:55 Mostly Clear with Drizzle 56 13.3 55 12.5 95 95 Calm 29.87 1011 10 16 0.01 0.25
2:15 am 02:15 undefined 56 13.1 54 12.4 96 96 Calm 29.86 1011 10 16 0.00 0.00
2:35 am 02:35 undefined 55 13 54 12.3 96 96 Calm 29.86 1011 10 16 0.00 0.00
2:55 am 02:55 undefined 55 12.7 54 12.2 97 97 Calm 29.87 1012 10 16 0.00 0.00
3:15 am 03:15 undefined 55 12.5 54 12.2 98 98 Calm 29.86 1011 7 11 0.00 0.00
3:35 am 03:35 undefined 55 12.8 55 12.5 98 98 Calm 29.87 1012 7 11 0.00 0.00
3:55 am 03:55 undefined 55 13 55 12.6 97 97 WNW 5 7 29.88 1012 7 11 0.00 0.00
4:15 am 04:15 undefined 55 13 55 12.5 97 97 NW 6 9 29.87 1012 7 11 0.00 0.00
4:35 am 04:35 undefined 55 12.6 54 12 96 96 WNW 3 6 29.88 1012 7 11 0.00 0.00
4:55 am 04:55 undefined 55 12.6 53 11.9 96 96 NW 6 9 29.87 1012 10 16 0.00 0.00
5:15 am 05:15 undefined 54 12.2 53 11.6 96 96 WNW 5 7 29.88 1012 7 11 0.00 0.00
5:35 am 05:35 undefined 54 12 53 11.5 97 97 WNW 6 9 29.87 1012 7 11 0.00 0.00
5:55 am 05:55 Mostly Clear with Mist and Fog 53 11.9 53 11.4 97 97 WNW 6 9 29.88 1012 5 8 0.00 0.00
6:15 am 06:15 undefined 53 11.6 52 11.1 97 97 WNW 5 7 29.89 1012 7 11 0.00 0.00
6:35 am 06:35 undefined 53 11.5 52 11 97 97 Calm 29.90 1012 7 11 0.00 0.00
6:55 am 06:55 undefined 52 11.3 51 10.8 97 97 W 5 7 29.90 1012 7 11 0.00 0.00
7:15 am 07:15 undefined 53 11.6 51 10.8 95 95 WNW 5 7 29.90 1012 10 16 0.00 0.00
7:35 am 07:35 undefined 54 12 52 11 94 94 WNW 5 7 29.89 1012 10 16 0.00 0.00
7:55 am 07:55 undefined 55 12.5 52 10.9 90 90 WNW 6 9 29.90 1013 10 16 0.00 0.00
8:15 am 08:15 undefined 55 13 52 10.9 87 87 W 6 9 29.90 1013 10 16 0.00 0.00
8:35 am 08:35 undefined 57 13.9 52 11.1 83 83 W 8 13 29.91 1013 10 16 0.00 0.00
8:55 am 08:55 undefined 58 14.6 52 11.1 80 80 WNW 6 9 29.90 1013 10 16 0.00 0.00
9:15 am 09:15 undefined 59 15.1 52 11.2 78 78 WNW 7 11 29.89 1012 10 16 0.00 0.00
9:35 am 09:35 undefined 60 15.7 52 11.2 75 75 WNW 8 13 29.90 1013 10 16 0.00 0.00
9:55 am 09:55 undefined 62 16.5 53 11.7 73 73 W 10 17 29.90 1012 10 16 0.00 0.00
10:15 am 10:15 undefined 63 17 54 12 73 73 W 9 15 29.90 1012 10 16 0.00 0.00
10:35 am 10:35 undefined 64 17.9 55 12.5 71 71 Calm 29.89 1012 10 16 0.00 0.00
10:55 am 10:55 undefined 65 18.6 54 12.2 67 67 W 10 17 29.89 1012 10 16 0.00 0.00
11:15 am 11:15 undefined 67 19.3 54 12.2 64 64 W 7 11 29.89 1012 10 16 0.00 0.00
11:35 am 11:35 undefined 68 20 55 12.9 64 64 W 10 17 29.90 1012 10 16 0.00 0.00
11:55 am 11:55 undefined 69 20.5 54 12 58 58 W 10 17 29.89 1012 10 16 0.00 0.00
12:15 pm 12:15 undefined 69 20.5 53 11.8 58 58 W 8 13 29.89 1012 10 16 0.00 0.00
12:35 pm 12:35 undefined 70 21.1 52 11.2 53 53 W 8 13 29.89 1012 10 16 0.00 0.00
12:55 pm 12:55 undefined 71 21.4 51 10.6 50 50 W 10 17 29.89 1012 10 16 0.00 0.00
1:15 pm 13:15 undefined 71 21.8 51 10.6 49 49 WNW 9 15 29.89 1012 10 16 0.00 0.00
1:35 pm 13:35 undefined 72 22.3 50 10.1 46 46 WNW 13 20 29.88 1012 10 16 0.00 0.00
1:55 pm 13:55 undefined 72 22.4 48 8.8 42 42 WNW 8 13 29.88 1012 10 16 0.00 0.00
2:15 pm 14:15 undefined 73 22.8 47 8.5 40 40 W 14 22 29.88 1012 10 16 0.00 0.00
2:35 pm 14:35 undefined 72 22.4 49 9.6 44 44 WNW 9 15 29.88 1012 10 16 0.00 0.00
2:55 pm 14:55 undefined 71 21.8 47 8.5 43 43 WNW 10 17 29.87 1012 10 16 0.00 0.00
3:15 pm 15:15 undefined 72 22 49 9.2 44 44 WNW 10 17 29.87 1012 10 16 0.00 0.00
3:35 pm 15:35 undefined 73 22.8 48 8.8 41 41 WNW 10 17 29.87 1011 10 16 0.00 0.00
3:55 pm 15:55 undefined 71 21.6 49 9.3 46 46 NW 10 17 29.87 1012 10 16 0.00 0.00
4:15 pm 16:15 undefined 74 23.3 49 9.5 42 42 WNW 14 22 29.86 1011 10 16 0.00 0.00
4:35 pm 16:35 undefined 74 23.3 47 8.6 39 39 WNW 10 17 29.86 1011 10 16 0.00 0.00
4:55 pm 16:55 undefined 74 23.1 46 7.5 37 37 W 14 22 29.86 1011 10 16 0.00 0.00
5:15 pm 17:15 undefined 73 22.9 46 7.8 38 38 W 14 22 29.85 1011 10 16 0.00 0.00
5:35 pm 17:35 undefined 73 22.8 45 7.1 36 36 WNW 8 13 29.85 1011 10 16 0.00 0.00
5:55 pm 17:55 undefined 74 23.1 44 6.6 35 35 WNW 10 17 29.85 1011 10 16 0.00 0.00
6:15 pm 18:15 undefined 73 22.9 45 7 36 36 WNW 12 19 29.85 1011 10 16 0.00 0.00
6:35 pm 18:35 undefined 73 23 44 6.7 35 35 WNW 14 22 29.85 1011 10 16 0.00 0.00
6:55 pm 18:55 undefined 73 23 42 5.7 33 33 WNW 12 19 29.85 1011 10 16 0.00 0.00
7:15 pm 19:15 undefined 73 22.6 42 5.6 33 33 W 10 17 29.85 1011 10 16 0.00 0.00
7:35 pm 19:35 undefined 72 22.2 44 6.4 36 36 WNW 6 9 29.85 1011 10 16 0.00 0.00
7:55 pm 19:55 undefined 71 21.6 43 5.9 36 36 Calm 29.85 1011 10 16 0.00 0.00
8:15 pm 20:15 undefined 69 20.7 44 6.8 41 41 W 6 9 29.86 1011 10 16 0.00 0.00
8:35 pm 20:35 undefined 67 19.6 46 7.6 46 46 Calm 29.87 1011 10 16 0.00 0.00
8:55 pm 20:55 undefined 66 18.9 46 7.7 48 48 W 6 9 29.88 1012 10 16 0.00 0.00
9:15 pm 21:15 undefined 65 18.4 46 7.6 50 50 W 5 7 29.88 1012 10 16 0.00 0.00
9:35 pm 21:35 undefined 64 17.5 46 7.9 54 54 Calm 29.88 1012 10 16 0.00 0.00
9:55 pm 21:55 undefined 60 15.8 48 9 64 64 Calm 29.90 1013 10 16 0.00 0.00
10:15 pm 22:15 undefined 61 16.2 47 8.3 60 60 Calm 29.90 1012 10 16 0.00 0.00
10:35 pm 22:35 undefined 60 15.4 48 9 66 66 Calm 29.90 1013 10 16 0.00 0.00
10:55 pm 22:55 undefined 59 15 49 9.2 68 68 Calm 29.91 1013 10 16 0.00 0.00
11:15 pm 23:15 undefined 58 14.3 49 9.5 73 73 Calm 29.92 1013 10 16 0.00 0.00
11:35 pm 23:35 undefined 59 15.2 48 8.9 66 66 Calm 29.91 1013 10 16 0.00 0.00
11:55 pm 23:55 undefined 60 15.4 47 8.5 64 64 WSW 5 7 29.91 1013 10 16 0.00 0.00

Powered by AerisWeather